This demonstration page uses our WeatherBlox Daily Observations layout. Learn more.

Left ArrowRight Arrow

39.01783, -85.05884

Hourly Observations for August 23, 2022

Temp ( °F °C ) Dew Point ( °F °C ) Humidity (%) Winds ( mph kmh ) Pressure ( in mb ) Visibility ( mi km ) Precip ( " mm )
12:52 am 00:52 Clear 66 18.9 65 18.3 96 96 Calm 29.98 1015 8 13 0.00 0.00
1:52 am 01:52 Clear 65 18.3 64 17.8 97 97 Calm 29.98 1015 8 13 0.00 0.00
2:52 am 02:52 Clear with Mist and Fog 64 17.8 64 17.8 100 100 Calm 29.97 1015 6 10 0.00 0.00
3:52 am 03:52 Clear with Mist and Fog 63 17.2 59 15 87 87 Calm 29.96 1015 5 8 0.00 0.00
4:52 am 04:52 Clear with Mist and Fog 63 17.2 63 17.2 100 100 W 5 7 29.96 1014 5 8 0.00 0.00
5:52 am 05:52 Clear 64 17.8 63 17.2 96 96 NW 9 15 29.95 1014 8 13 0.00 0.00
6:52 am 06:52 Clear 63 17.2 54 12.2 72 72 Calm 29.96 1015 7 11 0.00 0.00
7:52 am 07:52 Hazy 65 18.3 63 17 92 92 WNW 3 6 29.97 1015 6 10 0.00 0.00
8:52 am 08:52 Mostly Sunny 67 19.4 65 18.3 93 93 N 7 11 29.98 1015 7 11 0.00 0.00
9:52 am 09:52 Mostly Sunny 72 22.2 66 18.9 82 82 N 7 11 29.99 1016 10 16 0.00 0.00
10:52 am 10:52 Mostly Sunny 76 24.4 65 18.3 69 69 N 6 9 30.01 1016 10 16 0.00 0.00
11:52 am 11:52 Mostly Sunny 77 25 62 16.7 60 60 N 6 9 30.01 1016 10 16 0.00 0.00
12:52 pm 12:52 Mostly Sunny 79 26.1 60 15.6 52 52 undefined N/A 30.00 1016 10 16 0.00 0.00
1:52 pm 13:52 Partly Cloudy 79 26.1 61 16.1 54 54 WNW 12 19 29.98 1015 10 16 0.00 0.00
2:52 pm 14:52 Mostly Sunny 81 27.2 61 16.1 51 51 WSW 10 17 29.98 1015 10 16 0.00 0.00
3:52 pm 15:52 Mostly Sunny 81 27.2 59 15 47 47 WNW 9 15 29.97 1015 10 16 0.00 0.00
4:52 pm 16:52 Mostly Sunny 81 27.2 58 14.4 45 45 NNW 12 19 29.96 1015 10 16 0.00 0.00
5:52 pm 17:52 Mostly Sunny 80 26.7 59 15 49 49 NW 10 17 29.96 1015 10 16 0.00 0.00
6:52 pm 18:52 Mostly Sunny 79 26.1 57 13.9 47 47 NNW 9 15 29.96 1014 10 16 0.00 0.00
7:52 pm 19:52 Sunny 76 24.4 57 13.9 52 52 NW 6 9 29.96 1014 10 16 0.00 0.00
8:52 pm 20:52 Clear 73 22.8 58 14.4 59 59 NNW 5 7 29.97 1015 10 16 0.00 0.00
9:52 pm 21:52 Clear 70 21.1 59 15 68 68 NW 3 6 29.98 1015 10 16 0.00 0.00
10:52 pm 22:52 Clear 68 20 59 15 73 73 WNW 3 6 29.99 1016 10 16 0.00 0.00
11:52 pm 23:52 Clear 66 18.9 59 15 78 78 Calm 30.01 1016 10 16 0.00 0.00

Powered by AerisWeather